SPACEBEE-32 (46945 NORAD) Tracking and Keplerian Element Data

This shows tracking and keplerian element data for the satellite.

Feedback or suggestion? Click here.




ElementValue
Catalog46945
NameSPACEBEE-32
Epoch Orbit938
Epoch Day20.84878442
Epoch Year2021
RAAN160.1419
Inclination97.3734
Eccentricity0.0016446
Argument of Perigee93.6268
Mean Anonmoly266.6846
Mean Motion15.20974047
Decay Rate3.282E-05
L11 46945U 20085S 21020.84878442 .00003282 00000-0 15074-3 0 9998
L22 46945 97.3734 160.1419 0016446 93.6268 266.6846 15.20974047 9387

Live tracking and technical data element details for SPACEBEE-32 (NORAD 46945). SPACEBEE-32 can be tracked NOW for your location showing map with azimuth and elevation plus other details from your city location.

Track the satellite on the map from your city or location and see movement details for azimuth, elevation, latitude, longitude, range, height, and movement on the map or in text.







IsCatalogInMostPopularTable: catalog: 46945, numindb: 23
Update: records affected: 1



GetName: 46945 SPACEBEE-32

Hit Count: updated at: Fri, 22 Jan 2021 19:56:26 GMT